Weather History for KOWD - December, 2012

Change the Weather History Date:

Tuesday, December 4, 2012

  Actual Average (WUND) Record (WUND)
Temperature  
Mean Temperature 42 °F -  
Max Temperature 59 °F - - (-1)
Min Temperature 26 °F - - (-1)
Degree Days  
Heating Degree Days 24    
Moisture  
Dew Point 39 °F    
Average Humidity 92    
Maximum Humidity 100    
Minimum Humidity 82    
Precipitation  
Precipitation 0.01 in - - ()
Sea Level Pressure  
Sea Level Pressure 30.24 in    
Wind  
Wind Speed 2 mph (South)    
Max Wind Speed 12 mph    
Max Gust Speed 20 mph    
Visibility 5 miles    
Events Fog , Rain    
Averages and records for this station are not official NWS values.
T = Trace of Precipitation, MM = Missing Value Source: NWS Daily Summary

Daily Weather History Graph

Daily Weather History Graph

Search for Another Location

Airport or City:

Trip Planner

Search our weather history database for the weather conditions in past years. The results will help you decide how hot, cold, wet, or windy it might be!

Date:

Astronomy

Dec. 04, 2012 Rise Set
Actual Time 6:57 AM EST 4:12 PM EST
Civil Twilight 6:25 AM EST 4:44 PM EST
Nautical Twilight 5:50 AM EST 5:19 PM EST
Astronomical Twilight 5:16 AM EST 5:53 PM EST
Moon 10:01 PM EST (12/4) 10:46 AM EST (12/4)
Length of Visible Light 10h 18m
Length of Day
9h 15m
Waning Gibbous, 69% of the Moon is Illuminated
Dec 4
Waning Gibbous
Dec 6
Last Quarter
Dec 13
New
Dec 20
First Quarter
Dec 28
Full

Hourly Weather History & Observations

Time (EST) Temp. Windchill Dew Point Humidity Pressure Visibility Wind Dir Wind Speed Gust Speed Precip Events Conditions
12:53 AM 28.0 °F - 27.0 °F 96% 30.30 in 0.8 mi Calm Calm - N/A   Mostly Cloudy
1:01 AM 28.4 °F - 26.6 °F 93% 30.30 in 1.0 mi Calm Calm - N/A   Scattered Clouds
1:12 AM 26.6 °F - 26.6 °F 100% 30.30 in 0.5 mi Calm Calm - N/A Fog Light Freezing Fog
1:17 AM 26.6 °F - 24.8 °F 93% 30.30 in 0.2 mi Calm Calm - N/A Fog Light Freezing Fog
1:26 AM 28.4 °F - 24.8 °F 86% 30.30 in 2.0 mi Calm Calm - N/A   Partly Cloudy
1:33 AM 28.4 °F - 24.8 °F 86% 30.30 in 10.0 mi Calm Calm - N/A   Scattered Clouds
1:49 AM 28.4 °F - 26.6 °F 93% 30.30 in 4.0 mi Calm Calm - N/A   Mostly Cloudy
1:53 AM 28.0 °F - 26.1 °F 92% 30.30 in 3.0 mi Calm Calm - N/A   Mostly Cloudy
2:01 AM 26.6 °F - 24.8 °F 93% 30.30 in 1.8 mi Calm Calm - N/A   Overcast
2:13 AM 26.6 °F - 24.8 °F 93% 30.30 in 0.5 mi Calm Calm - N/A Fog Light Freezing Fog
2:26 AM 26.6 °F - 26.6 °F 100% 30.30 in 1.0 mi Calm Calm - N/A   Mostly Cloudy
2:31 AM 28.4 °F - 26.6 °F 93% 30.30 in 4.0 mi Calm Calm - N/A   Mostly Cloudy
2:53 AM 28.0 °F - 26.1 °F 92% 30.30 in 2.0 mi Calm Calm - N/A   Mostly Cloudy
3:04 AM 28.4 °F - 26.6 °F 93% 30.29 in 6.0 mi Calm Calm - N/A   Mostly Cloudy
3:53 AM 30.9 °F - 30.0 °F 96% 30.30 in 9.0 mi Calm Calm - N/A   Overcast
4:53 AM 32.0 °F - 30.9 °F 96% 30.31 in 9.0 mi Calm Calm - N/A   Overcast
5:53 AM 34.0 °F - 33.1 °F 96% 30.32 in 9.0 mi Calm Calm - N/A   Overcast
6:34 AM 35.6 °F - 33.8 °F 93% 30.32 in 1.5 mi Calm Calm - N/A   Overcast
6:40 AM 35.6 °F - 33.8 °F 93% 30.31 in 0.5 mi Calm Calm - N/A Fog Fog
6:53 AM 35.1 °F - 34.0 °F 96% 30.32 in 0.2 mi Calm Calm - N/A Fog Fog
7:53 AM 37.0 °F - 37.0 °F 100% 30.32 in 0.2 mi Calm Calm - N/A Fog Fog
8:53 AM 41.0 °F - 39.9 °F 96% 30.32 in 0.5 mi Calm Calm - N/A Fog Fog
9:05 AM 42.8 °F 40.1 °F 41.0 °F 93% 30.30 in 2.0 mi SSE 4.6 mph - N/A   Overcast
9:41 AM 42.8 °F - 42.8 °F 100% 30.31 in 3.0 mi Calm Calm - N/A   Overcast
9:53 AM 44.1 °F - 43.0 °F 96% 30.31 in 3.0 mi Calm Calm - N/A   Overcast
10:53 AM 45.0 °F 43.5 °F 44.1 °F 97% 30.29 in 4.0 mi South 3.5 mph - N/A   Overcast
11:12 AM 46.4 °F 44.3 °F 44.6 °F 93% 30.27 in 6.0 mi SSE 4.6 mph - N/A   Overcast
11:44 AM 46.4 °F 44.3 °F 44.6 °F 93% 30.25 in 7.0 mi South 4.6 mph - N/A   Overcast
11:53 AM 48.0 °F - 45.0 °F 89% 30.25 in 4.0 mi Variable 4.6 mph - N/A   Overcast
12:02 PM 48.2 °F - 46.4 °F 93% 30.24 in 7.0 mi South 3.5 mph - N/A   Overcast
12:53 PM 50.0 °F - 46.9 °F 89% 30.22 in 9.0 mi South 5.8 mph - N/A   Overcast
1:00 PM 51.8 °F - 46.4 °F 82% 30.22 in 9.0 mi South 5.8 mph - N/A   Overcast
1:53 PM 51.1 °F - 48.0 °F 89% 30.20 in 8.0 mi South 5.8 mph - 0.01 in Rain Light Rain
2:30 PM 51.8 °F - 48.2 °F 88% 30.18 in 8.0 mi South 5.8 mph - N/A   Overcast
2:53 PM 53.1 °F - 50.0 °F 89% 30.18 in 8.0 mi South 6.9 mph - N/A   Overcast
3:53 PM 54.0 °F - 51.1 °F 90% 30.17 in 6.0 mi SSW 8.1 mph - N/A   Overcast
4:53 PM 54.0 °F - 51.1 °F 90% 30.16 in 8.0 mi South 5.8 mph - N/A   Overcast
5:53 PM 54.0 °F - 51.1 °F 90% 30.14 in 7.0 mi South 5.8 mph - N/A   Overcast
5:55 PM 55.4 °F - 51.8 °F 88% 30.14 in 7.0 mi South 8.1 mph - N/A   Overcast
5:58 PM 55.4 °F - 51.8 °F 88% 30.14 in 7.0 mi South 5.8 mph - N/A   Overcast
6:53 PM 55.0 °F - 51.1 °F 86% 30.13 in 8.0 mi South 5.8 mph - N/A   Overcast
7:53 PM 55.0 °F - 52.0 °F 89% 30.10 in 8.0 mi South 6.9 mph - N/A   Overcast
8:53 PM 55.9 °F - 53.1 °F 90% 30.06 in 8.0 mi South 9.2 mph 16.1 mph N/A   Overcast
9:53 PM 57.9 °F - 54.0 °F 87% 30.03 in 9.0 mi SSW 11.5 mph 19.6 mph N/A   Overcast
10:53 PM 57.9 °F - 54.0 °F 87% 30.01 in 8.0 mi South 11.5 mph 18.4 mph N/A   Overcast
11:53 PM 59.0 °F - 54.0 °F 83% 29.98 in 10.0 mi SSW 9.2 mph - N/A   Overcast